Location: ???? ?????
(37.9132°N, 22.9869°E)
Time: 10:23:01
(UTC+00:00)

Milstar 3 - Pass Details

Date: 04 August 2024
Orbit: 1098 x 5146 km, 28.2° (Epoch: 18 September)

Event Time Altitude Azimuth Distance (km) Brightness Sun altitude
Rises 21:02:10 0° 263° (W) 3,941 5.9 -31.1°
Reaches altitude 10° 21:04:48 10° 254° (WSW) 3,087 5.2 -31.3°
Enters shadow 21:07:51 25° 234° (SW) 2,340 4.3 -31.5°
